date,time,DOY,Ta_1_1_1,RH_1_1_1,LWin_1_1_1,LWout_1_1_1,SWin_1_1_1,SWout_1_1_1,PPFD_1_1_1,SWC_1_1_1,Ts_1_1_1
[yyyy-mm-dd],[HH:MM],[ddd.ddd],[K],[%],[W+1m-2],[W+1m-2],[W+1m-2],[W+1m-2],[µmol+1m-2s-1],[m+3m-3],[K]
2012-06-26,00:30,178.020,288.35666666666668,66.866000000000000,-9999.0,-9999.0,0.31933333333333330,-4.7433333333333332,8.33333333333333322E-003,0.33000000000000002,287.58266666666674
2012-06-26,01:00,178.041,287.76400000000001,73.100666666666669,-9999.0,-9999.0,0.12166666666666667,-4.6416666666666666,5.66666666666666707E-003,0.33000000000000002,287.40033333333338
2012-06-26,01:30,178.062,287.47500000000002,72.479333333333315,-9999.0,-9999.0,0.48533333333333328,-4.3753333333333329,3.99999999999999922E-003,0.33000000000000002,287.26633333333331
2012-06-26,02:00,178.083,287.60333333333335,68.077333333333343,-9999.0,-9999.0,0.51800000000000002,-4.3676666666666666,8.00000000000000190E-003,0.33000000000000002,287.17799999999988
2012-06-26,02:30,178.104,287.43900000000002,71.018999999999977,-9999.0,-9999.0,0.37233333333333335,-4.3910000000000009,8.66666666666666800E-003,0.33000000000000002,287.09200000000004
2012-06-26,03:00,178.124,287.03500000000003,71.489000000000004,-9999.0,-9999.0,0.26266666666666666,-4.3153333333333324,1.26666666666666698E-002,0.33000000000000002,286.95999999999998
2012-06-26,03:30,178.145,286.85900000000004,70.000000000000000,-9999.0,-9999.0,0.34366666666666662,-4.1639999999999997,9.00000000000000105E-003,0.33000000000000002,286.81566666666669
2012-06-26,04:00,178.166,286.41933333333338,73.635666666666665,-9999.0,-9999.0,0.16500000000000001,-4.0783333333333340,7.33333333333333406E-003,0.33000000000000002,286.67833333333340
2012-06-26,04:30,178.187,286.20833333333337,74.760999999999996,-9999.0,-9999.0,0.21433333333333332,-4.0819999999999981,9.00000000000000105E-003,0.33000000000000002,286.54933333333338
2012-06-26,05:00,178.208,286.04500000000002,77.388666666666680,-9999.0,-9999.0,0.16900000000000001,-4.0369999999999999,7.66666666666666712E-003,0.33000000000000002,286.42899999999992
2012-06-26,05:30,178.229,285.92233333333331,79.742333333333320,-9999.0,-9999.0,0.22933333333333331,-4.1033333333333344,3.73333333333333434E-002,0.33000000000000002,286.31733333333341
2012-06-26,06:00,178.249,285.97699999999998,79.443666666666687,-9999.0,-9999.0,0.47633333333333333,-3.2250000000000005,1.3136666666666665,0.33000000000000002,286.20366666666661
2012-06-26,06:30,178.270,286.22666666666663,78.864333333333349,-9999.0,-9999.0,3.5696666666666657,9.4973333333333336,23.158666666666669,0.33000000000000002,286.09899999999999
2012-06-26,07:00,178.291,286.47266666666678,77.659666666666666,-9999.0,-9999.0,12.710666666666667,55.142333333333347,103.77100000000002,0.33000000000000002,286.01533333333339
2012-06-26,07:30,178.312,287.02866666666665,76.480333333333348,-9999.0,-9999.0,23.759333333333338,120.54233333333335,230.49600000000004,0.33000000000000002,285.97000000000008
2012-06-26,08:00,178.333,287.39866666666671,76.001000000000005,-9.5899999999999999,-9999.0,34.253000000000000,194.96233333333331,378.02966666666669,0.33000000000000002,285.98366666666669
2012-06-26,08:30,178.354,288.21766666666667,74.443000000000012,-9.4057894736842105,-9999.0,45.768666666666668,279.88433333333336,558.75733333333324,0.33000000000000002,286.07600000000002
2012-06-26,09:00,178.374,289.66133333333340,68.665333333333336,-9999.0,-9999.0,58.143999999999977,367.42333333333335,741.01566666666656,0.33000000000000002,286.25833333333333
2012-06-26,09:30,178.395,290.54500000000007,62.888666666666659,-9999.0,-9999.0,70.948666666666668,456.87966666666671,927.93266666666671,0.33000000000000002,286.54366666666670
2012-06-26,10:00,178.416,291.42066666666676,58.820999999999991,-9999.0,-9999.0,83.300999999999988,541.32633333333320,1107.6393333333333,0.33000000000000002,286.89866666666671
2012-06-26,10:30,178.437,292.35000000000008,54.907666666666678,-9999.0,-9999.0,96.247333333333330,619.38733333333334,1271.2323333333334,0.32933333333333337,287.30433333333337
2012-06-26,11:00,178.458,292.93566666666663,50.412999999999997,-8.5963636363636358,-9999.0,107.28200000000001,692.36666666666679,1419.0076666666666,0.32066666666666677,287.65566666666666
2012-06-26,11:30,178.479,293.49966666666671,48.381333333333338,-7.9813793103448258,-9999.0,117.70833333333333,753.67499999999995,1539.3859999999997,0.32000000000000012,287.98733333333337
2012-06-26,12:00,178.499,293.97166666666669,46.308333333333323,-7.7483333333333331,-9999.0,125.46966666666667,810.55266666666648,1659.9403333333330,0.32000000000000012,288.29133333333340
2012-06-26,12:30,178.520,294.25533333333334,46.571000000000005,-7.3170000000000019,-9999.0,132.77300000000002,856.06666666666672,1751.7206666666668,0.32000000000000012,288.68000000000001
2012-06-26,13:00,178.541,294.77800000000008,45.464666666666659,-7.7817857142857152,-9999.0,136.43066666666667,891.85966666666684,1827.4383333333333,0.32000000000000012,289.05566666666670
2012-06-26,13:30,178.562,294.88600000000008,44.786333333333332,-6.4433333333333325,-9999.0,140.40333333333331,919.68566666666675,1883.5896666666665,0.32000000000000012,289.33366666666672
2012-06-26,14:00,178.583,295.45566666666662,44.645333333333333,-7.1643333333333317,-9999.0,142.46700000000004,936.89499999999987,1922.1056666666666,0.32000000000000012,289.57800000000009
2012-06-26,14:30,178.604,295.64799999999997,44.626666666666665,-7.0266666666666664,-9999.0,139.79466666666667,944.11499999999978,1932.3110000000004,0.32000000000000012,289.83066666666673
2012-06-26,15:00,178.624,295.98300000000000,42.594333333333324,-7.1514285714285704,-9999.0,140.75533333333334,937.06566666666674,1913.3586666666670,0.32000000000000012,290.03366666666682
2012-06-26,15:30,178.645,296.23066666666665,43.350000000000001,-7.4013793103448293,-9999.0,139.55899999999994,914.16399999999999,1857.3576666666663,0.32000000000000012,290.18566666666669
2012-06-26,16:00,178.666,296.47400000000005,41.825666666666663,-9.0712499999999991,-9999.0,136.36499999999998,879.23733333333337,1776.7166666666669,0.32000000000000012,290.44800000000009
2012-06-26,16:30,178.687,296.48800000000006,41.581333333333326,-8.8399999999999999,-9999.0,130.80100000000002,829.35699999999997,1658.1029999999998,0.32000000000000012,290.70133333333331
2012-06-26,17:00,178.708,296.85066666666665,39.334333333333340,-8.5705263157894738,-9999.0,123.54233333333333,778.45466666666675,1549.4993333333337,0.32000000000000012,290.97066666666666
2012-06-26,17:30,178.729,297.25966666666665,38.448333333333331,-8.9223076923076938,-9999.0,114.37666666666668,714.34899999999993,1407.4656666666667,0.32000000000000012,291.05233333333337
2012-06-26,18:00,178.749,297.53000000000003,39.174333333333337,-9999.0,-9999.0,102.88033333333333,636.56833333333338,1241.2269999999999,0.32000000000000012,291.03700000000009
2012-06-26,18:30,178.770,297.34233333333333,38.776999999999994,-9999.0,-9999.0,92.513999999999982,559.79433333333338,1076.9126666666666,0.32000000000000012,291.03433333333339
2012-06-26,19:00,178.791,297.14366666666672,40.460999999999999,-9999.0,-9999.0,76.521333333333331,453.55166666666662,857.15566666666643,0.32000000000000012,291.03466666666679
2012-06-26,19:30,178.812,296.86699999999996,39.501666666666672,-9999.0,-9999.0,66.766000000000005,375.04466666666673,688.79300000000001,0.32000000000000012,290.97333333333341
2012-06-26,20:00,178.833,296.06900000000013,42.233333333333334,-9999.0,-9999.0,28.539666666666673,166.24866666666668,333.83800000000002,0.32000000000000012,290.87700000000001
2012-06-26,20:30,178.854,295.18000000000012,46.793333333333329,-9999.0,-9999.0,23.307666666666670,125.31666666666666,245.41266666666667,0.31233333333333324,290.71166666666676
2012-06-26,21:00,178.874,294.45666666666665,51.439000000000028,-9999.0,-9999.0,12.995666666666667,68.736000000000018,143.33233333333331,0.30999999999999989,290.51066666666674
2012-06-26,21:30,178.895,293.63000000000000,55.195333333333338,-9999.0,-9999.0,10.335666666666665,39.844333333333346,75.459333333333333,0.30999999999999989,290.30400000000009
2012-06-26,22:00,178.916,292.87133333333338,56.886333333333333,-9999.0,-9999.0,2.1666666666666665,3.4053333333333340,19.356000000000002,0.30999999999999989,290.09233333333339
2012-06-26,22:30,178.937,292.24066666666670,59.405999999999985,-9999.0,-9999.0,0.17166666666666669,-3.7126666666666659,1.5443333333333338,0.30999999999999989,289.87133333333338
2012-06-26,23:00,178.958,291.83666666666670,61.410666666666664,-9999.0,-9999.0,0.10299999999999998,-4.2243333333333322,2.26666666666666718E-002,0.30999999999999989,289.65566666666666
2012-06-26,23:30,178.979,291.50500000000000,62.292333333333332,-9999.0,-9999.0,0.14666666666666667,-3.7123333333333330,3.33333333333333311E-003,0.30999999999999989,289.43966666666671
2012-06-27,00:00,179.000,291.23733333333337,64.021666666666675,-9.9399999999999995,-9999.0,0.14533333333333334,-4.1383333333333328,1.66666666666666677E-003,0.30999999999999989,289.25466666666665
